Flag for Mozambique Weather past 2 weeks in Maputo, Mozambique

Now
77 °F

Clear.


Feels Like: 78 °F
Forecast: 57 / 83 °F
Wind: 8 mph from North

Location: Maputo / Mavalane

Current Time: Jul 4, 2015 at 5:48:52 PM

Latest Report: Jul 4, 2015 at 5:00 PM


Visibility: 10 mi

Pressure: 30.12 "Hg

Humidity: 36%

Dew point: 48 °F

Location of MaputoLocation

Historic Weather in Maputo — Graph

°F

Maputo temperature yesterday

Maximum temperature yesterday: 79 °F (at 1:00 PM)
Minimum temperature yesterday: 55 °F (at 7:00 AM)
Average temperature yesterday: 70 °F

Past Weeks' High & Low Weather Summary

 TemperatureHumidityPressure
High91 °F (Jun 22, 1:00 PM)100% (Jul 3, 9:00 AM)30.48 "Hg (Jul 3, 9:00 AM)
Low50 °F (Jun 24, 7:00 AM)17% (Jun 24, 1:00 PM)29.98 "Hg (Jun 24, 3:00 PM)
Average68 °F68%30.24 "Hg
* Reported Jun 19 5:00 PM — Jul 4 5:00 PM, Maputo, Weather by CustomWeather, © 2015

Note: Actual official high and low records may vary slightly from our data, if they occured in-between our weather recording intervals... More about our weather records

Advertising

Maputo weather history for previous 24 hours

 ConditionsComfort  
Time TempWeatherWind HumidityBarometerVisibility
5:00 PM
Sat, Jul 4
77 °FClear.8 mph36%30.12 "Hg10 mi
4:00 PM82 °FSunny.13 mph30%30.09 "Hg10 mi
3:00 PM84 °FSunny.13 mph31%30.12 "Hg10 mi
2:00 PM82 °FSunny.14 mph35%30.12 "Hg10 mi
1:00 PM81 °FSunny.10 mph37%30.18 "Hg10 mi
12:00 PM79 °FSunny.14 mph42%30.21 "Hg10 mi
11:00 AM75 °FSunny.14 mph47%30.24 "Hg10 mi
10:00 AM72 °FSunny.14 mph61%30.27 "Hg10 mi
9:00 AM66 °FSunny.13 mph73%30.27 "Hg10 mi
8:00 AM61 °FPassing clouds.9 mph88%30.24 "HgN/A
7:00 AM70 °FPartly sunny.12 mph78%30.12 "HgN/A
6:00 AM55 °FPassing clouds.6 mph94%30.24 "HgN/A
5:00 AM55 °FPassing clouds.6 mph94%30.24 "HgN/A
4:00 AM72 °FPassing clouds.15 mph100%30.09 "HgN/A
3:00 AM73 °FPassing clouds.13 mph94%30.07 "HgN/A
2:00 AM57 °FPassing clouds.6 mph94%30.27 "HgN/A
1:00 AM73 °FFog.14 mph94%30.09 "Hg4 mi
12:00 AM75 °FFog.15 mph83%30.12 "Hg3 mi
11:00 PM
Fri, Jul 3
75 °FPassing clouds.13 mph83%30.12 "HgN/A
10:00 PM75 °FPassing clouds.12 mph83%30.12 "HgN/A
9:00 PM64 °FPassing clouds.8 mph83%30.27 "HgN/A
8:00 PM77 °FPassing clouds.7 mph79%30.12 "HgN/A
7:00 PM68 °FPassing clouds.8 mph73%30.27 "HgN/A
6:00 PM77 °FPassing clouds.12 mph79%30.07 "HgN/A
5:00 PM72 °FPassing clouds.12 mph65%30.24 "HgN/A
Weather by CustomWeather, © 2015

See weather overviewHow to use our weather pages